星链-34674(STARLINK-34674)

导读 | 豆包AI

STARLINK-34674是美国SpaceX星链星座的卫星,于2025年9月6日发射。星链旨在构建全球卫星互联网星座,为地面偏远地区提供低延迟宽带服务,该卫星属于星链批量部署的新一代低轨卫星,承担星座组网扩容任务,依托低轨轨道优势可提供更优网络传输性能,是星链全球覆盖布局的组成部分。

基本信息
目录编号:
65526
目录名称:
STARLINK-34674
国际标识:
2025-200G
轨道中心:
EARTH
卫星名称:
星链-34674
卫星全名:
星链-34674(STARLINK-34674)
卫星状态:
在轨 (已飞行235 天)
发射日期:
2025-09-06 UTC
国别 :
美国 (US)
星等 :
--
轨道信息
数据来源 国际轨道数据 AOE轨道数据
星历时间 2026-04-29T11:07:07+0800
8小时前
查看轨道信息
2026-04-22T21:00:00+0800
6天前
查看轨道信息
半长轴 6927.693km 6927.649km
偏心率 0.0001907 0.0001578
轨道倾角 97.560° 97.588°
近地点辐角 198.121° 188.630°
升交点赤经 189.536° 183.072°
平近点角 161.994° 123.323°
近地点 548.234km 548.418km
远地点 550.878km 550.606km
周期 95.641分钟 95.640分钟
每日圈数 15.056354 15.056498
详细信息
固有亮度:
5
最大亮度:
2.5
卫星平台:
Starlink V1.0
覆盖范围:
全球
运营商:
太空探索技术公司
运营商所在国:
美国
制造商(研发单位):
太空探索技术公司
制造商所在国:
美国
使用方式:
暂无
卫星简介
Starlink 计划是 SpaceX 推出的全球卫星互联网项目,通过发射低轨道卫星,为全球尤其是偏远地区提供高速、低延迟的互联网服务。自 2019 年起,Starlink 已部署数千颗卫星,旨在缩小全球数字鸿沟,推动互联网普及。该项目还为军事、航空等行业提供通信支持,带来广泛经济效益。
2D轨道图
3D轨道图
轨道高度分析图
轨道倾角分析图
轨道综合分析图
查看轨道综合分析图